This is the latest recevied weather packets stored in our database for station/object W3TMB. If no packets are shown the sender has not sent any weather packets the latest 10 day(s).
| Time | Temp. | Humidity | Pressure | Rain* | Wind** | Luminosity | Snow |
|---|---|---|---|---|---|---|---|
| 1777767858 | 8.33° C | 66% | 1011.2 hPa | 0 mm | - | 0 W/m² | - |
| 1777767554 | 8.33° C | 65% | 1011 hPa | 0 mm | - | 0 W/m² | - |
| 1777767250 | 8.33° C | 65% | 1011.1 hPa | 0 mm | - | 0 W/m² | - |
| 1777766949 | 8.33° C | 64% | 1011.1 hPa | 0 mm | - | 0 W/m² | - |
| 1777766645 | 8.89° C | 64% | 1011.1 hPa | 0 mm | - | 0 W/m² | - |
| 1777766343 | 8.89° C | 64% | 1011 hPa | 0 mm | - | 1 W/m² | - |
| 1777766039 | 8.89° C | 63% | 1011.1 hPa | 0 mm | - | 3 W/m² | - |
| 1777765736 | 8.89° C | 62% | 1011 hPa | 0 mm | - | 3 W/m² | - |
| 1777765433 | 8.89° C | 62% | 1011.2 hPa | 0 mm | - | 4 W/m² | - |
| 1777765130 | 8.89° C | 62% | 1011 hPa | 0 mm | - | 4 W/m² | - |
| 1777764826 | 8.89° C | 62% | 1010.9 hPa | 0 mm | - | 3 W/m² | - |
| 1777764523 | 8.89° C | 63% | 1010.9 hPa | 0 mm | - | 4 W/m² | - |
| 1777764219 | 8.89° C | 62% | 1010.7 hPa | 0 mm | - | 8 W/m² | - |
| 1777763916 | 8.89° C | 62% | 1010.9 hPa | 0 mm | - | 6 W/m² | - |
| 1777763614 | 8.89° C | 64% | 1010.8 hPa | 0 mm | - | 7 W/m² | - |
| 1777763312 | 8.89° C | 63% | 1011.1 hPa | 0 mm | - | 9 W/m² | - |
| 1777763010 | 9.44° C | 65% | 1010.9 hPa | 0 mm | - | 6 W/m² | - |
| 1777762706 | 9.44° C | 65% | 1010.9 hPa | 0 mm | - | 8 W/m² | - |
| 1777762403 | 9.44° C | 64% | 1010.7 hPa | 0 mm | - | 10 W/m² | - |
| 1777762100 | 9.44° C | 61% | 1010.8 hPa | 0 mm | - | 22 W/m² | - |
| 1777761796 | 9.44° C | 61% | 1010.7 hPa | 0 mm | - | 35 W/m² | - |
| 1777761494 | 10° C | 61% | 1010.6 hPa | 0 mm | - | 34 W/m² | - |
| 1777761192 | 10° C | 61% | 1010.5 hPa | 0 mm | - | 34 W/m² | - |
| 1777760889 | 10° C | 61% | 1010.5 hPa | 0 mm | - | 39 W/m² | - |
| 1777760586 | 10° C | 59% | 1010.5 hPa | 0 mm | - | 38 W/m² | - |
* Rain latest hour (hover to see other rain measurements)
** Current wind speed in m/s (hover to see current wind gust speed)